Volver al catálogo

STARLINK-35292

ActivoComunicacionesVLEO
NORAD 66322·PAYLOAD·🇺🇸 United States

Lanzado Nov 6, 2025 desde Cape Canaveral Space Force Station

Loading…

Próximos Pases (próximas 24 horas)

TLE

ActualizadoSource: CelesTrak SupGP

Época: Sep 14, 2026, 20:48 UTC

1 66322C 25253D   26257.86715278  .00033823  00000+0  12250-2 0  2579
2 66322  43.0028 223.9410 0001372 261.2036 292.7534 15.27562903    15

Sigue STARLINK-35292 en tiempo real con AllMySat

Download on the App Store